Regional Weather Roundup
Issued by NWS

Home | Current Version | Previous Version | Graphics & Text | Print | Product List | Glossary On
Versions: 1 2 3 4 5 6 7 8 9 10 11 12 13 14 15 16 17 18 19 20 21 22 23 24 25 26 27 28 29 30 31 32 33 34 35 36 37 38 39 40 41 42 43 44 45 46 47 48 49 50
000
ASUS43 KDMX 202106
RWRIA

WEATHER ROUNDUP FOR IOWA
NATIONAL WEATHER SERVICE DES MOINES IA
400 PM CDT THU JUL 20 2017

NOTE: "FAIR" INDICATES FEW OR NO CLOUDS BELOW 12,000 FEET WITH NO
SIGNIFICANT WEATHER AND/OR OBSTRUCTIONS TO VISIBILITY.

* - THESE STATIONS ARE NOT NWS STATIONS...THUS NOT UNDER NWS
QUALITY CONTROL.  THEY ALSO DO NOT REPORT WEATHER SUCH
AS PRECIPITATION OR FOG.

IAZ001>003-012>014-020>022-031>034-043>046-202200-
   NORTHWEST IOWA

CITY           SKY/WX    TMP DP  RH WIND       PRES   REMARKS
CARROLL *      CLOUDY    95  77  55 VRB5      29.96S HX 109
CHEROKEE *     CLOUDY    88  76  67 NE9       29.99S HX  99
DENISON *      PTSUNNY   93  77  59 VRB5      29.97F HX 107
ORANGE CITY *  CLOUDY    88  72  58 E5        30.02R HX  94
SHELDON *      CLOUDY    86  70  58 NE7       30.00S HX  90
SIOUX CITY     CLOUDY    92  76  59 NE6       29.98R HX 104
SPENCER        CLOUDY    92  69  47 E13       30.00S HX  97
STORM LAKE *   CLOUDY    86  75  70 E10       30.00F HX  95
$$

IAZ055>058-069>071-079>083-090>094-202200-
   SOUTHWEST IOWA

CITY           SKY/WX    TMP DP  RH WIND       PRES   REMARKS
ATLANTIC *     SUNNY     93  77  59 SW10      29.96R HX 107
AUDUBON *      SUNNY     93  79  62 SE3       29.97F HX 110
CLARINDA *     SUNNY     93  81  66 S12       29.97F HX 113
COUNCIL BLFS * SUNNY     93  75  55 S8        29.96S HX 104
CRESTON *      SUNNY     93  75  55 S10       29.98F HX 104
HARLAN  *      MOSUNNY   91  77  62 S9        29.99F HX 105
LAMONI         SUNNY     93  80  65 SW10      29.97F HX 112
RED OAK *      SUNNY     91  79  66 S8        29.96S HX 107
SHENANDOAH *   SUNNY     91  79  66 SW8       29.95F HX 107
$$

IAZ047>049-059>061-072>074-084-202200-
   CENTRAL IOWA

CITY           SKY/WX    TMP DP  RH WIND       PRES   REMARKS
AMES           MOSUNNY   96  78  56 E3        29.95S HX 112
ANKENY *       SUNNY     97  75  49 SW5       29.94F HX 109
BOONE *        PTSUNNY   93  77  59 NE7       29.95S HX 107
CHARITON *     SUNNY     99  73  44 SW12      29.95F HX 109
DES MOINES     MOSUNNY   98  73  44 SW7       29.93S HX 108
GRINNELL*      SUNNY     91  76  60 CALM      29.97S HX 103
KNOXVILLE *    SUNNY     97  73  46 CALM      29.93F HX 107
MARSHALLTOWN   MOSUNNY   94  79  61 NE8       29.95S HX 111
NEWTON *       SUNNY     93  77  59 CALM      29.95F HX 107
PELLA *        SUNNY     97  73  47 NW5       29.95S HX 107
PERRY *          N/A     94  78  58 CALM      29.96S HX 110
$$

IAZ004>006-015-016-023>025-035-036-202200-
   NORTH CENTRAL IOWA

CITY           SKY/WX    TMP DP  RH WIND       PRES   REMARKS
ALGONA *       CLOUDY    86  73  66 NE10      30.00S HX  93
ESTHERVILLE    CLOUDY    85  74  69 NE10      30.01F HX  92
FORT DODGE *   CLOUDY    88  75  66 N8        29.99S HX  97
MASON CITY     MOSUNNY   86  75  69 E9        30.02S HX  95
FOREST CITY *    N/A     86  72  62 NE8       30.01S HX  92
WEBSTER CITY * MOSUNNY   90  79  70 NE12      29.96R HX 105
IOWA FALLS *     N/A     88  78  72 N8        30.00S HX 100
$$

IAZ007>011-017>019-026>030-037>042-050>054-066-202200-
   NORTHEAST IOWA

CITY           SKY/WX    TMP DP  RH WIND       PRES   REMARKS
CEDAR RAPIDS   MOSUNNY   91  80  70 N7        29.95S HX 109
CHARLES CITY * MOSUNNY   86  75  70 NE8       30.01S HX  95
CLINTON *      PTSUNNY   87  79  76 NW6       29.97S HX 101
DECORAH *      CLOUDY    84  73  70 VRB5      29.99S HX  91
DUBUQUE        CLOUDY    84  75  74 N9        29.99S HX  92
MONTICELLO *   PTSUNNY   88  77  70 N5        29.96F HX 100
OELWEIN *      MOSUNNY   86  77  74 VRB7      30.00S HX  97
WATERLOO       MOSUNNY   89  75  63 NE10      29.97R HX  99
$$

IAZ064-065-067-068-078-202200-
   EAST CENTRAL IOWA

CITY           SKY/WX    TMP DP  RH WIND       PRES   REMARKS
DAVENPORT      MOSUNNY   90  78  68 NW6       29.98R HX 104
IOWA CITY      MOSUNNY   93  78  61 W6        29.96S HX 108
MT. PLEASANT * SUNNY     98  73  44 SW12G17   29.93F HX 108
MUSCATINE *    SUNNY     93  77  59 W7        29.94S HX 107
QUAD CITIES    MOSUNNY   94  77  57 VRB3      29.94S HX 108
$$

IAZ062-063-075>077-085>089-095>099-202200-
   SOUTHEAST IOWA

CITY           SKY/WX    TMP DP  RH WIND       PRES   REMARKS
BURLINGTON     SUNNY     94  79  61 SW9       29.94F HX 111
FAIRFIELD *    SUNNY     97  73  46 W8G14     29.93F HX 107
FORT MADISON * SUNNY     95  81  63 SW7       29.95F HX 115
KEOKUK *       SUNNY     97  77  52 SW14G21   29.94F HX 112
OSKALOOSA *      N/A     97  74  48 W6        29.93F HX 108
CENTERVILLE *    N/A     95  77  55 SW6       29.98F HX 109
OTTUMWA        SUNNY    100  73  41 VRB6      29.93S HX 110
WASHINGTON *   SUNNY     95  77  55 VRB5      29.95F HX 109
$$

ABBREVIATIONS USED IN REMARKS
   TC - TEMPERATURES IN CELSIUS
  WCI - WIND CHILL INDEX
   HX - HEAT INDEX
  VSB - VISIBILITY
$$





USA.gov is the U.S. government's official web portal to all federal, state and local government web resources and services.